TimeMST,TemperatureF,Dew PointF,Humidity,Sea Level PressureIn,VisibilityMPH,Wind Direction,Wind SpeedMPH,Gust SpeedMPH,PrecipitationIn,Events,Conditions,WindDirDegrees,DateUTC
12:15 AM,64.4,41.0,42,29.86,10.0,ESE,5.8,-,N/A,,Clear,110,2012-11-09 07:15:00
12:35 AM,62.6,41.0,45,29.86,10.0,ESE,8.1,-,N/A,,Clear,120,2012-11-09 07:35:00
12:55 AM,64.4,39.2,40,29.86,10.0,SE,10.4,-,N/A,,Clear,130,2012-11-09 07:55:00
1:15 AM,64.4,41.0,42,29.85,10.0,SE,11.5,-,N/A,,Clear,130,2012-11-09 08:15:00
1:35 AM,64.4,41.0,42,29.85,10.0,SE,11.5,-,N/A,,Clear,130,2012-11-09 08:35:00
1:55 AM,64.4,41.0,42,29.85,10.0,SE,10.4,-,N/A,,Clear,130,2012-11-09 08:55:00
2:15 AM,64.4,41.0,42,29.86,10.0,SE,10.4,-,N/A,,Clear,130,2012-11-09 09:15:00
2:35 AM,64.4,41.0,42,29.86,10.0,SE,10.4,-,N/A,,Clear,140,2012-11-09 09:35:00
2:55 AM,64.4,44.6,49,29.86,10.0,SE,11.5,-,N/A,,Clear,140,2012-11-09 09:55:00
3:15 AM,66.2,44.6,46,29.85,10.0,SSE,8.1,-,N/A,,Clear,150,2012-11-09 10:15:00
3:35 AM,69.8,46.4,43,29.85,10.0,SE,4.6,-,N/A,Thunderstorm,Thunderstorm,130,2012-11-09 10:35:00
3:55 AM,64.4,50.0,59,29.85,7.0,SE,10.4,-,N/A,Rain-Thunderstorm,Light Thunderstorms and Rain,130,2012-11-09 10:55:00
4:15 AM,64.4,50.0,59,29.85,10.0,SSE,8.1,-,N/A,Thunderstorm,Thunderstorm,150,2012-11-09 11:15:00
4:35 AM,64.4,50.0,59,29.85,10.0,SE,10.4,-,N/A,,Clear,140,2012-11-09 11:35:00
4:55 AM,64.4,50.0,59,29.85,10.0,SE,9.2,-,N/A,Thunderstorm,Thunderstorm,130,2012-11-09 11:55:00
5:15 AM,64.4,50.0,59,29.85,10.0,SE,10.4,-,N/A,Thunderstorm,Thunderstorm,140,2012-11-09 12:15:00
5:47 AM,66.2,51.8,60,29.85,20.0,SE,11.5,-,N/A,,Mostly Cloudy,140,2012-11-09 12:47:00
6:47 AM,64.4,51.8,64,29.85,30.0,SE,8.1,-,N/A,,Mostly Cloudy,140,2012-11-09 13:47:00
7:47 AM,66.2,51.8,60,29.87,45.0,SSE,10.4,-,N/A,,Mostly Cloudy,150,2012-11-09 14:47:00
8:47 AM,69.8,53.6,56,29.87,45.0,SE,15.0,-,N/A,,Mostly Cloudy,130,2012-11-09 15:47:00
9:47 AM,73.4,55.4,53,29.86,35.0,SE,10.4,-,N/A,,Mostly Cloudy,130,2012-11-09 16:47:00
10:48 AM,73.4,50.0,44,29.85,30.0,South,11.5,17.3,N/A,,Mostly Cloudy,190,2012-11-09 17:48:00
11:49 AM,78.8,46.4,32,29.82,30.0,SW,16.1,29.9,N/A,,Widespread Dust,230,2012-11-09 18:49:00
12:50 PM,78.8,46.4,32,29.79,30.0,SW,10.4,19.6,N/A,,Mostly Cloudy,220,2012-11-09 19:50:00
1:48 PM,75.2,46.4,36,29.76,30.0,WNW,9.2,13.8,N/A,,Mostly Cloudy,290,2012-11-09 20:48:00
2:47 PM,75.2,46.4,36,29.75,30.0,WSW,8.1,13.8,N/A,,Mostly Cloudy,250,2012-11-09 21:47:00
3:47 PM,75.2,46.4,36,29.95,30.0,WSW,11.5,16.1,N/A,,Mostly Cloudy,250,2012-11-09 22:47:00
4:52 PM,73.4,44.6,36,29.74,30.0,WSW,5.8,15.0,N/A,,Scattered Clouds,240,2012-11-09 23:52:00
5:55 PM,73.4,44.6,36,29.75,20.0,West,5.8,-,N/A,,Mostly Cloudy,260,2012-11-10 00:55:00
6:47 PM,71.6,44.6,38,29.76,20.0,West,4.6,-,N/A,,Mostly Cloudy,270,2012-11-10 01:47:00
7:47 PM,68.0,44.6,43,29.77,20.0,SSW,9.2,-,N/A,,Mostly Cloudy,210,2012-11-10 02:47:00
7:55 PM,68.0,44.6,43,29.78,10.0,SSW,6.9,-,N/A,,Clear,210,2012-11-10 02:55:00
8:15 PM,66.2,46.4,49,29.78,10.0,SW,12.7,-,N/A,Rain,Rain,220,2012-11-10 03:15:00
8:35 PM,62.6,51.8,68,29.79,10.0,SSW,11.5,-,0.01,,Light Drizzle,210,2012-11-10 03:35:00
8:47 PM,62.6,53.6,72,29.78,20.0,SSW,11.5,-,N/A,,Mostly Cloudy,210,2012-11-10 03:47:00
8:55 PM,62.6,51.8,68,29.79,10.0,SSW,10.4,-,0.01,,Clear,200,2012-11-10 03:55:00
9:15 PM,60.8,51.8,72,29.80,7.0,SSW,19.6,-,N/A,Rain,Heavy Rain,200,2012-11-10 04:15:00
9:35 PM,57.2,51.8,82,29.81,10.0,South,13.8,-,N/A,Rain,Rain,180,2012-11-10 04:35:00
9:55 PM,59.0,53.6,82,29.80,10.0,South,8.1,-,N/A,,Clear,180,2012-11-10 04:55:00
10:15 PM,59.0,53.6,82,29.81,10.0,South,5.8,-,N/A,,Clear,170,2012-11-10 05:15:00
10:35 PM,59.0,51.8,77,29.82,7.0,South,9.2,13.8,0.02,Rain,Heavy Rain,190,2012-11-10 05:35:00
10:55 PM,57.2,51.8,82,29.82,10.0,South,4.6,-,0.02,Rain,Light Rain,190,2012-11-10 05:55:00
11:15 PM,57.2,51.8,82,29.82,10.0,SSW,3.5,-,N/A,Rain,Light Rain,210,2012-11-10 06:15:00
11:35 PM,57.2,51.8,82,29.83,10.0,South,4.6,-,0.02,Rain,Light Rain,170,2012-11-10 06:35:00
11:55 PM,57.2,48.2,72,29.84,7.0,West,11.5,19.6,0.02,Rain,Rain,280,2012-11-10 06:55:00